COSMOS 1289

导读

COSMOS 1289是苏联(CIS)于1981年8月6日发射的宇宙系列卫星,该系列是苏联/俄罗斯广泛应用的多用途卫星项目。这颗卫星属于冷战时期苏联航天计划的产物,延续了宇宙系列卫星服务军事侦察、空间科学试验的任务定位,在近地轨道开展相关太空任务,是苏联航天技术发展进程中的一颗典型军用或科研卫星,为当时航天领域积累了宝贵的空间运行数据。

基本信息
目录编号:
12638
目录名称:
COSMOS 1289
国际标识:
1981-074C
轨道中心:
EARTH
卫星名称:
COSMOS 1289
卫星全名:
--
卫星状态:
在轨 (已飞行16384 天)
发射日期:
1981-08-06 UTC
国别 :
俄罗斯(独联体) (CIS)
星等 :
--
轨道信息
数据来源 国际轨道数据
星历时间: 2026-06-15T07:24:16+0800
6小时前
查看轨道信息
半长轴: 7822.931km
偏心率: 0.0024185
轨道倾角: 74.031°
近地点辐角 91.750°
升交点赤经 146.558°
平近点角 324.790°
近地点: 1425.874km
远地点: 1463.714km
周期: 114.766分钟
每日圈数: 12.547251
详细信息
使用方式:
暂无
2D轨道图
3D轨道图
轨道高度分析图
轨道倾角分析图
轨道综合分析图
查看轨道综合分析图